{"data":{"norad_id":63242,"intl_designator":"2025-052AJ","name":"HERMES-1","alt_names":[],"object_type":"PAYLOAD","status":"ACTIVE","operator":null,"country":"IT","launch_date":"2025-03-15","launch_site_code":"AFWTR","launch_vehicle":null,"mission":null,"orbit_class":"UNKNOWN","rcs_meters":null,"size_class":null,"mass_kg":null,"dimensions":null,"purposes":[],"wikipedia_slug":null,"has_3d_model":false,"image_url":null,"decayed_at":null,"tle_current":{"epoch":"2026-05-24T22:35:52.734048Z","epoch_age_seconds":77200,"freshness":"FRESH","line1":"1 63242U 25052AJ  26144.94158257  .00004017  00000+0  18238-3 0  9995","line2":"2 63242  97.3932  36.9839 0005412 265.1528  94.9090 15.21347451 66265","mean_motion":15.21347451,"eccentricity":0.0005412,"inclination_deg":97.3932,"raan_deg":36.9839,"arg_perigee_deg":265.1528,"mean_anomaly_deg":94.909,"bstar":0.00018238,"rev_number":6626,"period_min":94.652934085075,"perigee_km":498.05186506675,"apogee_km":505.49868211168,"semimajor_km":6879.9122735892,"source":"CELESTRAK","updated_at":"2026-05-25T13:38:03.584423Z"}}}